Weather Roundup
Issued by NWS Springfield, MO

Home | Current Version | Previous Version | Text Only | Print | Product List | Glossary On
Versions: 1 2 3 4 5 6 7 8 9 10 11 12 13 14 15 16 17 18 19 20 21 22 23 24 25 26 27 28 29 30 31 32 33 34 35 36 37 38 39 40 41 42 43 44 45 46 47 48 49 50
000
NZUS99 KSGF 040610
HRRSGF

HOURLY WEATHER
NATIONAL WEATHER SERVICE SPRINGFIELD MO
100 AM CDT FRI SEP 04 2015

......SGF CWA......

CITY           SKY/WX    TMP DP  RH WIND       PRES   REMARKS
SPRINGFIELD    CLEAR     74  68  81 SE7       29.98R
6HR MIN TEMP:  73; 6HR MAX TEMP:  85;

JOPLIN         CLEAR     76  68  76 SE8       29.96R
6HR MIN TEMP:  73; 6HR MAX TEMP:  85;

WEST PLAINS    CLEAR     70  67  90 CALM      30.02R
6HR MIN TEMP:  69; 6HR MAX TEMP:  84;

ROLLA          CLEAR     73  68  84 S6        29.98R
6HR MIN TEMP:  71; 6HR MAX TEMP:  85;

OSAGE BEACH    CLEAR     72  66  83 S3        29.98R
BRANSON        CLEAR     73  66  78 CALM      30.00S

......SURROUNDING SGF CWA......

CITY           SKY/WX    TMP DP  RH WIND       PRES   REMARKS
CHANUTE        PTCLDY    73  68  84 SE7       29.93S
PARSONS        PTCLDY    75  68  78 SE5       29.94R
COFFEYVILLE    MOCLDY    74  69  85 S6        29.93R
EMPORIA        MOCLDY    74  68  81 S10       29.91S
GROVE OK       PTCLDY    72  72 100 CALM      29.96R
ROGERS AR      CLEAR     74  69  85 SE7       29.99S
SILOAM SPRINGS CLEAR     73  64  73 E7        29.96S
HARRISON AR    CLEAR     70  68  93 SE3       30.00S
NEAR YELLVILLE CLEAR     72  64  78 CALM      29.96S

......KANSAS AND MISSOURI......

CITY           SKY/WX    TMP DP  RH WIND       PRES   REMARKS
KANSAS CTY INT MOCLDY    74  67  78 S8        29.93R
DOWNTOWN KC    MOCLDY    79  68  69 SW6       29.92R
COLUMBIA       CLEAR     75  69  81 SE6       29.97R
SEDALIA        CLEAR     73  68  84 S7        29.97R
ST JOSEPH      PTCLDY    73  69  87 S5        29.91S
ST LOUIS       CLEAR     79  69  71 CALM      29.97R
SPIRIT OF STL  CLEAR     72  71  97 CALM      29.95R
KIRKSVILLE     CLEAR     72  67  84 S5        29.96R
WICHITA        CLOUDY    77  65  66 S13       29.88S
TOPEKA         CLEAR     76  68  76 SE8       29.90S
OLATHE         PTCLDY    72  68  87 S5        29.93S

......TENNESSEE......

CITY           SKY/WX    TMP DP  RH WIND       PRES   REMARKS
MEMPHIS        CLEAR     79  70  74 CALM      29.96R
NASHVILLE      PTCLDY    76  67  73 CALM      29.98S

......ARKANSAS.......

CITY           SKY/WX    TMP DP  RH WIND       PRES   REMARKS
FAYETTEVILLE   CLEAR     67  67 100 CALM      29.99R FOG
FT SMITH       CLEAR     75  69  81 NE6       29.93R
LITTLE ROCK    CLEAR     77  69  76 CALM      29.95R

......OKLAHOMA.......

CITY           SKY/WX    TMP DP  RH WIND       PRES   REMARKS
TULSA          CLOUDY    78  71  79 SE3       29.90R
PONCA CITY     CLEAR     79  65  62 S8        29.90R
MCALESTER      MOCLDY    77  64  64 SE5       29.93R
OKLAHOMA CITY  MOCLDY    72  64  76 SE8       29.92R

......IOWA............

CITY           SKY/WX    TMP DP  RH WIND       PRES   REMARKS
DES MOINES     PTCLDY    78  68  71 SE7       29.92R
QUAD CITIES    CLEAR     75  69  81 CALM      29.93R

......ILLINOIS........

CITY           SKY/WX    TMP DP  RH WIND       PRES   REMARKS
QUINCY         CLEAR     75  67  76 S3        29.95S
CHICAGO        PTCLDY    71  67  87 NE8       29.97R




USA.gov is the U.S. government's official web portal to all federal, state and local government web resources and services.